,,�O�C���x[��],����1,�O�C���x[��],����2,���ԉ��x [��],����3,���Ԏ��x [��],����4,�Q�����x [��],����5,���� [��],����6,�R�����i��󒲎��j���x�m���n,����7
2003/5/1,0:00,7.6,0,77.6,0,23.9,0,41.7,0,19.6,0,16.6,0,23.9,0
2003/5/1,0:15,8.1,0,75.2,0,23.6,0,42.2,0,19.6,0,16.7,0,23.7,0
2003/5/1,0:30,8.5,0,71.8,0,23.4,0,42.6,0,19.6,0,16.8,0,23.5,0
2003/5/1,0:45,8.2,0,67.5,0,23.2,0,42.6,0,19.6,0,16.9,0,23.4,0
2003/5/1,1:00,7.5,0,67,0,23,0,42.7,0,19.5,0,17,0,23.2,0
2003/5/1,1:15,7.2,0,69.5,0,22.8,0,42.5,0,19.5,0,17,0,23,0
2003/5/1,1:30,7.6,0,67.2,0,22.6,0,42.3,0,19.5,0,17.1,0,22.8,0
2003/5/1,1:45,8.2,0,62.3,0,22.5,0,42.2,0,19.6,0,17.2,0,22.7,0
2003/5/1,2:00,8.2,0,63.1,0,22.3,0,42.1,0,19.5,0,17.3,0,22.5,0
2003/5/1,2:15,8,0,66.8,0,22.1,0,42,0,19.5,0,17.4,0,22.4,0
2003/5/1,2:30,7.2,0,60.2,0,22,0,41.8,0,19.5,0,17.4,0,22.2,0
2003/5/1,2:45,6.6,0,67.3,0,21.8,0,41.7,0,19.4,0,17.5,0,22,0
2003/5/1,3:00,7.7,0,67.9,0,21.6,0,41.5,0,19.4,0,17.6,0,21.9,0
2003/5/1,3:15,7.7,0,68.9,0,21.4,0,41.4,0,19.4,0,17.7,0,21.7,0
2003/5/1,3:30,7.8,0,69.5,0,21.3,0,41.4,0,19.3,0,17.7,0,21.5,0
2003/5/1,3:45,7.9,0,65,0,21.2,0,41.5,0,19.3,0,17.8,0,21.4,0
2003/5/1,4:00,7.9,0,63.6,0,21,0,41.5,0,19.3,0,17.9,0,21.3,0
2003/5/1,4:15,8.1,0,59.5,0,20.9,0,41.6,0,19.2,0,17.9,0,21.2,0
2003/5/1,4:30,8.2,0,57.7,0,20.8,0,41.6,0,19.1,0,18,0,21.1,0
2003/5/1,4:45,8.3,0,58.1,0,20.7,0,41.5,0,19.1,0,18,0,20.9,0
2003/5/1,5:00,8.3,0,57.1,0,20.6,0,41.5,0,19.1,0,18.1,0,20.9,0
2003/5/1,5:15,8.4,0,55.7,0,20.5,0,41.4,0,19,0,18.2,0,20.7,0
2003/5/1,5:30,8.3,0,55.4,0,20.4,0,41.3,0,18.9,0,18.2,0,20.6,0
2003/5/1,5:45,8.5,0,54.9,0,20.6,0,40.6,0,18.8,0,18.3,0,20.6,0
2003/5/1,6:00,8.6,0,47.2,0,23.7,0,34.8,0,18.8,0,18.3,0,21.4,0
2003/5/1,6:15,9,0,43.9,0,24.3,0,33.3,0,18.8,0,18.4,0,22.4,0
2003/5/1,6:30,9,0,48.8,0,25.2,0,31.8,0,18.8,0,18.4,0,23.1,0
2003/5/1,6:45,9.4,0,50.2,0,25.5,0,31.5,0,18.7,0,15.3,0,24.3,0
2003/5/1,7:00,9.6,0,45.8,0,26.4,0,30.8,0,18.4,0,15.7,0,24.8,0
2003/5/1,7:15,10.1,0,42,0,23.9,0,35.9,0,18.3,0,14.3,0,24.6,0
2003/5/1,7:30,10.4,0,41.4,0,23.5,0,37.1,0,18.2,0,14.6,0,24.2,0
2003/5/1,7:45,10.8,0,38.2,0,23.4,0,37.7,0,18.2,0,14.7,0,24,0
2003/5/1,8:00,10.8,0,39.3,0,23.4,0,38.1,0,18,0,14.8,0,24,0
2003/5/1,8:15,11.1,0,41,0,23.5,0,38.2,0,17.9,0,14.1,0,24.1,0
2003/5/1,8:30,11.2,0,39.6,0,23.5,0,38.4,0,17.9,0,14.4,0,24.2,0
2003/5/1,8:45,11.6,0,37.6,0,23.6,0,38.4,0,17.9,0,14.5,0,24.3,0
2003/5/1,9:00,11.8,0,40.7,0,23.7,0,38.3,0,17.9,0,14.6,0,24.4,0
2003/5/1,9:15,12.1,0,37.5,0,23.8,0,38.1,0,17.8,0,13.9,0,24.5,0
2003/5/1,9:30,12.3,0,39,0,23.9,0,38.2,0,17.9,0,14.3,0,24.5,0
2003/5/1,9:45,12.5,0,41.6,0,24,0,38.3,0,17.9,0,14.4,0,24.6,0
2003/5/1,10:00,12.7,0,42.4,0,24.1,0,38,0,17.9,0,13.6,0,24.7,0
2003/5/1,10:15,12.8,0,38.5,0,24.1,0,38.2,0,17.9,0,13.9,0,24.7,0
2003/5/1,10:30,12.9,0,39.2,0,24.1,0,38.2,0,18,0,14,0,24.7,0
2003/5/1,10:45,13,0,36.9,0,24.1,0,38.2,0,18,0,14.1,0,24.7,0
2003/5/1,11:00,13.2,0,38.2,0,24,0,38.3,0,18.1,0,14.2,0,24.6,0
2003/5/1,11:15,13.2,0,40.5,0,24,0,38.5,0,18.1,0,14.3,0,24.6,0
2003/5/1,11:30,13.4,0,35.9,0,23.9,0,38.7,0,18.2,0,14.5,0,24.6,0
2003/5/1,11:45,13,0,37.8,0,23.9,0,38.6,0,18.3,0,14.6,0,24.6,0
2003/5/1,12:00,13,0,34.3,0,23.9,0,37.6,0,18.3,0,14.7,0,24.6,0
2003/5/1,12:15,13.3,0,32.3,0,23.2,0,22.8,0,18.4,0,14.8,0,24.7,0
2003/5/1,12:30,13.7,0,28.3,0,22.9,0,29,0,18.4,0,14.9,0,24.7,0
2003/5/1,12:45,13.6,0,29.3,0,23.3,0,30.1,0,18.5,0,14.9,0,24.7,0
2003/5/1,13:00,13.8,0,28.7,0,23.5,0,31.9,0,18.5,0,15.1,0,24.7,0
2003/5/1,13:15,14,0,26.2,0,23.6,0,32.5,0,18.6,0,15.2,0,24.8,0
2003/5/1,13:30,13.8,0,26.9,0,23.7,0,33.3,0,18.7,0,15.3,0,24.8,0
2003/5/1,13:45,13.8,0,29.9,0,23.9,0,33.8,0,18.8,0,15.5,0,24.9,0
2003/5/1,14:00,14,0,30.7,0,24,0,34.3,0,18.9,0,15.6,0,24.9,0
2003/5/1,14:15,13.9,0,30.7,0,24.2,0,34.4,0,19.2,0,15.7,0,25,0
2003/5/1,14:30,13.8,0,33.8,0,24.4,0,34.3,0,19.4,0,15.8,0,25.1,0
2003/5/1,14:45,14,0,30.8,0,24.6,0,34.5,0,19.7,0,16,0,25.2,0
2003/5/1,15:00,14,0,27.5,0,24.8,0,34.7,0,19.9,0,16.1,0,25.4,0
2003/5/1,15:15,14.1,0,27.3,0,24.9,0,34.8,0,20.1,0,16.2,0,25.5,0
2003/5/1,15:30,13.9,0,30.2,0,25.1,0,34.9,0,20.3,0,16.4,0,25.6,0
2003/5/1,15:45,14,0,30.3,0,25.2,0,34.9,0,20.4,0,16.5,0,25.7,0
2003/5/1,16:00,14,0,30.4,0,25.3,0,35.1,0,20.5,0,16.6,0,25.8,0
2003/5/1,16:15,13.9,0,30.1,0,25.3,0,35.2,0,20.5,0,16.8,0,25.8,0
2003/5/1,16:30,13.7,0,31.2,0,25.3,0,35.4,0,20.5,0,16.9,0,25.8,0
2003/5/1,16:45,13.5,0,27.3,0,25.2,0,35.4,0,20.5,0,17,0,25.7,0
2003/5/1,17:00,13.3,0,30.7,0,25.1,0,35.6,0,20.5,0,17.2,0,25.6,0
2003/5/1,17:15,12.9,0,30.3,0,24.9,0,35.8,0,20.4,0,17.3,0,25.5,0
2003/5/1,17:30,12.7,0,31.5,0,24.9,0,35.9,0,20.4,0,14,0,25.3,0
2003/5/1,17:45,12.5,0,31.7,0,24.6,0,35.6,0,20,0,15.2,0,25.2,0
2003/5/1,18:00,12,0,30.4,0,24.4,0,34.8,0,19.8,0,15.5,0,24.9,0
2003/5/1,18:15,11.5,0,35.6,0,24.3,0,34.5,0,19.6,0,15.7,0,24.9,0
2003/5/1,18:30,10.2,0,45,0,24.1,0,34,0,19.5,0,15.8,0,24.4,0
2003/5/1,18:45,9.3,0,48.6,0,24,0,34,0,19.3,0,15.9,0,24.2,0
2003/5/1,19:00,8.7,0,48.4,0,24,0,35.7,0,19.3,0,16,0,24.5,0
2003/5/1,19:15,8.3,0,49.8,0,24,0,36.6,0,19.3,0,16.1,0,24.6,0
2003/5/1,19:30,7.6,0,57,0,23.9,0,37.2,0,19.4,0,16.3,0,24.5,0
2003/5/1,19:45,7.3,0,55.7,0,23.8,0,37.2,0,19.4,0,16.4,0,24.4,0
2003/5/1,20:00,6.9,0,62.6,0,23.8,0,37.5,0,19.4,0,16.5,0,24.2,0
2003/5/1,20:15,6.5,0,63.6,0,23.7,0,37.9,0,19.4,0,16.6,0,24.1,0
2003/5/1,20:30,6,0,67.3,0,23.7,0,37.6,0,19.3,0,16.7,0,24,0
2003/5/1,20:45,5.7,0,70.8,0,23.6,0,37.4,0,19.2,0,16.8,0,23.9,0
2003/5/1,21:00,5.3,0,74.1,0,23.5,0,37.3,0,19.2,0,16.9,0,23.7,0
2003/5/1,21:15,4.9,0,76,0,23.4,0,38,0,19.1,0,17,0,23.6,0
2003/5/1,21:30,5.1,0,72.7,0,23.2,0,37.4,0,19.1,0,17.1,0,23.4,0
2003/5/1,21:45,4.9,0,71,0,23,0,37.3,0,19,0,17.2,0,23,0
2003/5/1,22:00,4.7,0,74.6,0,22.8,0,36.8,0,18.9,0,17.3,0,22.7,0
2003/5/1,22:15,4.5,0,74.1,0,22.6,0,36.3,0,18.9,0,17.4,0,22.5,0
2003/5/1,22:30,4.3,0,77.6,0,22.5,0,36,0,18.8,0,17.4,0,22.2,0
2003/5/1,22:45,4.3,0,76.2,0,22.3,0,35.7,0,18.8,0,17.5,0,22.1,0
2003/5/1,23:00,4,0,78.3,0,22.1,0,35.9,0,18.7,0,17.6,0,22.1,0
2003/5/1,23:15,3.7,0,80.5,0,21.9,0,36.1,0,18.6,0,17.7,0,22,0
2003/5/1,23:30,3.7,0,80.6,0,21.7,0,36.1,0,18.6,0,17.7,0,21.9,0
2003/5/1,23:45,3.9,0,79,0,21.6,0,36.7,0,18.6,0,17.8,0,21.7,0
2003/5/2,0:00,4.1,0,79.7,0,21.4,0,37.4,0,18.6,0,17.8,0,21.7,0
2003/5/2,0:15,4.3,0,78,0,21.2,0,37.4,0,18.5,0,17.9,0,21.6,0
2003/5/2,0:30,4.7,0,74.7,0,21.1,0,37.2,0,18.4,0,17.9,0,21.4,0
2003/5/2,0:45,4.5,0,72.2,0,20.9,0,37,0,18.3,0,18,0,21.2,0
2003/5/2,1:00,4.5,0,70.6,0,20.7,0,36.8,0,18.2,0,18,0,21,0
2003/5/2,1:15,4.7,0,68.2,0,20.6,0,36.7,0,18.1,0,18.1,0,20.8,0
2003/5/2,1:30,4.5,0,70.6,0,20.4,0,36.6,0,18.1,0,18.1,0,20.7,0
2003/5/2,1:45,4.3,0,72.8,0,20.2,0,36.5,0,18,0,18.2,0,20.5,0
2003/5/2,2:00,4,0,75,0,20,0,36.5,0,17.9,0,18.2,0,20.3,0
2003/5/2,2:15,4,0,75.5,0,19.9,0,36.3,0,17.8,0,18.3,0,20.2,0
2003/5/2,2:30,3.6,0,76.8,0,19.8,0,36.3,0,17.7,0,18.3,0,20,0
2003/5/2,2:45,3.3,0,78.9,0,19.6,0,36.3,0,17.5,0,18.3,0,19.9,0
2003/5/2,3:00,3.5,0,77.1,0,19.5,0,36.2,0,17.4,0,18.4,0,19.8,0
2003/5/2,3:15,3.4,0,77.3,0,19.4,0,36.2,0,17.4,0,18.4,0,19.6,0
2003/5/2,3:30,3,0,80.4,0,19.3,0,36.1,0,17.3,0,18.4,0,19.5,0
2003/5/2,3:45,3,0,79,0,19.1,0,36.2,0,17.2,0,18.5,0,19.3,0
2003/5/2,4:00,3.4,0,78.2,0,18.9,0,36.1,0,17.1,0,18.5,0,19.1,0
2003/5/2,4:15,3.4,0,77.3,0,18.8,0,36.4,0,17.2,0,18.5,0,19,0
2003/5/2,4:30,3,0,80.3,0,18.7,0,36.5,0,17.2,0,18.5,0,19,0
2003/5/2,4:45,2.9,0,82,0,18.6,0,36.6,0,17.1,0,18.5,0,18.9,0
2003/5/2,5:00,3,0,81.7,0,18.5,0,36.6,0,17,0,18.5,0,18.7,0
2003/5/2,5:15,3.3,0,78.5,0,18.4,0,36.6,0,16.9,0,18.6,0,18.7,0
2003/5/2,5:30,3.5,0,76,0,18.3,0,36.4,0,16.7,0,18.6,0,18.7,0
2003/5/2,5:45,4,0,73.8,0,19.8,0,33.1,0,16.6,0,18.6,0,19,0
2003/5/2,6:00,4.7,0,70.4,0,22.5,0,28.7,0,16.5,0,18.6,0,20.2,0
2003/5/2,6:15,4.9,0,70.5,0,23,0,28.2,0,16.4,0,18.6,0,21.1,0
2003/5/2,6:30,5.5,0,69.9,0,23.6,0,27.5,0,16.3,0,18.7,0,21.7,0
2003/5/2,6:45,6.6,0,68,0,24.4,0,27.5,0,16.2,0,14.7,0,22.3,0
2003/5/2,7:00,7.6,0,66.2,0,24.9,0,28,0,15.9,0,13.9,0,22.9,0
2003/5/2,7:15,8.8,0,63.1,0,22.6,0,32.7,0,15.7,0,14.1,0,22.9,0
2003/5/2,7:30,10.3,0,58.2,0,22.3,0,34.3,0,15.8,0,14.2,0,22.5,0
2003/5/2,7:45,11.6,0,56.6,0,22.2,0,35.2,0,15.7,0,13.7,0,22.5,0
2003/5/2,8:00,12.8,0,52.6,0,22.2,0,35.7,0,15.7,0,13.4,0,22.5,0
2003/5/2,8:15,14.2,0,51.2,0,22.3,0,35.8,0,15.7,0,13.5,0,22.7,0
2003/5/2,8:30,15.9,0,48.9,0,22.3,0,35.9,0,15.7,0,13.5,0,22.8,0
2003/5/2,8:45,18.1,0,37.8,0,22.5,0,36.2,0,15.7,0,13.6,0,23,0
2003/5/2,9:00,20.4,0,30.1,0,22.6,0,36.5,0,15.8,0,13.7,0,23.2,0
2003/5/2,9:15,21.3,0,27.6,0,22.7,0,36.6,0,15.9,0,13.8,0,23.4,0
2003/5/2,9:30,21.5,0,26.7,0,22.9,0,36.8,0,16.1,0,13.9,0,23.6,0
2003/5/2,9:45,21.4,0,27,0,23,0,36.9,0,16.3,0,14,0,23.8,0
2003/5/2,10:00,21.2,0,27,0,23.1,0,37,0,16.6,0,14.1,0,23.9,0
2003/5/2,10:15,21.5,0,27.4,0,23.2,0,37.4,0,16.8,0,14.2,0,24,0
2003/5/2,10:30,21.4,0,27.8,0,23.2,0,37.2,0,17,0,14.3,0,24.1,0
2003/5/2,10:45,21.4,0,27.7,0,23.2,0,37.5,0,17.3,0,14.5,0,24.2,0
2003/5/2,11:00,21.7,0,28.2,0,23.3,0,38.1,0,17.5,0,14.6,0,24.2,0
2003/5/2,11:15,21.9,0,27.5,0,23.3,0,37.9,0,17.8,0,14.7,0,24.3,0
2003/5/2,11:30,21.7,0,28.3,0,23.4,0,38.8,0,17.9,0,14.8,0,24.4,0
2003/5/2,11:45,21.7,0,28.9,0,23.4,0,39,0,17.8,0,13.9,0,24.5,0
2003/5/2,12:00,21.9,0,29.3,0,23.6,0,39.1,0,17.8,0,14,0,24.7,0
2003/5/2,12:15,22,0,29.3,0,23.7,0,39.6,0,17.9,0,14.1,0,24.8,0
2003/5/2,12:30,22.3,0,29.7,0,23.8,0,39.8,0,18,0,14.2,0,24.9,0
2003/5/2,12:45,22.4,0,29.8,0,23.9,0,39.8,0,18.1,0,14.3,0,25,0
2003/5/2,13:00,22.3,0,30.2,0,24,0,39.7,0,18.2,0,14.4,0,25.2,0
2003/5/2,13:15,22.1,0,30.5,0,24.1,0,39.7,0,18.3,0,14.5,0,25.3,0
2003/5/2,13:30,22.3,0,30.2,0,24.3,0,39.5,0,18.5,0,14.6,0,25.5,0
2003/5/2,13:45,22.3,0,29.8,0,24.4,0,39.3,0,18.6,0,14.7,0,25.6,0
2003/5/2,14:00,22.5,0,29.4,0,24.6,0,39.3,0,18.7,0,14.9,0,25.8,0
2003/5/2,14:15,22.3,0,30,0,24.8,0,38.9,0,18.9,0,15,0,26,0
2003/5/2,14:30,22.4,0,29.9,0,25.1,0,38.8,0,19,0,15.1,0,26.2,0
2003/5/2,14:45,22.5,0,30.1,0,25.4,0,38.5,0,19.1,0,15.3,0,26.4,0
2003/5/2,15:00,22.4,0,30.5,0,25.7,0,38.6,0,19.3,0,14.6,0,26.6,0
2003/5/2,15:15,22.2,0,31,0,25.9,0,38.8,0,19.4,0,15,0,26.7,0
2003/5/2,15:30,22.2,0,31.8,0,26.2,0,38.5,0,19.4,0,15.1,0,26.9,0
2003/5/2,15:45,22,0,32.1,0,26.4,0,38.4,0,19.5,0,15.3,0,27.1,0
2003/5/2,16:00,21.7,0,32.7,0,26.5,0,38.2,0,19.5,0,15.5,0,27.2,0
2003/5/2,16:15,21.6,0,32.8,0,26.3,0,32,0,19.6,0,15.6,0,27.2,0
2003/5/2,16:30,21.2,0,33.6,0,26.2,0,31.3,0,19.6,0,15.8,0,27.2,0
2003/5/2,16:45,21.1,0,34,0,25.9,0,30,0,19.7,0,15.9,0,27.1,0
2003/5/2,17:00,20.8,0,34.7,0,26,0,33.9,0,19.7,0,16,0,27,0
2003/5/2,17:15,20.5,0,35.5,0,26.1,0,34.8,0,19.7,0,16.2,0,27,0
2003/5/2,17:30,20.2,0,37.3,0,26,0,35.2,0,19.7,0,14.2,0,26.9,0
2003/5/2,17:45,19.9,0,38.4,0,26,0,35.6,0,19.8,0,13.8,0,26.8,0
2003/5/2,18:00,19.4,0,40.8,0,25.9,0,35.9,0,19.8,0,14.2,0,26.8,0
2003/5/2,18:15,19,0,42.2,0,25.9,0,35.9,0,19.8,0,14.3,0,26.6,0
2003/5/2,18:30,18.2,0,45.9,0,25.8,0,35.9,0,19.8,0,14.4,0,26.5,0
2003/5/2,18:45,17.3,0,48.9,0,25.7,0,36,0,19.8,0,14.5,0,26.4,0
2003/5/2,19:00,16.6,0,51,0,25.6,0,36,0,19.8,0,14.7,0,26.2,0
2003/5/2,19:15,16.1,0,52.2,0,25.4,0,36,0,19.8,0,14.8,0,26.1,0
2003/5/2,19:30,15.7,0,54.7,0,25.3,0,35.9,0,19.8,0,14.9,0,26,0
2003/5/2,19:45,15.4,0,55.9,0,25.2,0,36,0,19.7,0,15,0,25.8,0
2003/5/2,20:00,15,0,59.6,0,25.1,0,36.2,0,19.7,0,15.2,0,25.6,0
2003/5/2,20:15,13.8,0,69.8,0,25,0,36.1,0,19.7,0,15.3,0,25.5,0
2003/5/2,20:30,13.2,0,71.5,0,24.9,0,36.3,0,19.8,0,15.5,0,25.4,0
2003/5/2,20:45,12.5,0,73.1,0,24.8,0,37.7,0,19.8,0,15.6,0,25.3,0
2003/5/2,21:00,12.1,0,73.5,0,24.8,0,38.2,0,19.7,0,15.8,0,25.2,0
2003/5/2,21:15,11.7,0,76.2,0,24.8,0,38.6,0,19.7,0,15.9,0,25.1,0
2003/5/2,21:30,11.4,0,77.8,0,24.7,0,38.7,0,19.7,0,14.5,0,25.1,0
2003/5/2,21:45,11,0,78.4,0,24.6,0,38.4,0,19.7,0,14.9,0,25,0
2003/5/2,22:00,11.2,0,77.7,0,24.5,0,38,0,19.7,0,15,0,24.7,0
2003/5/2,22:15,11.1,0,77.3,0,24.4,0,38.3,0,19.7,0,15.2,0,24.5,0
2003/5/2,22:30,10.5,0,81.1,0,24.2,0,38.1,0,19.7,0,15.3,0,24.4,0
2003/5/2,22:45,10.3,0,83,0,24.1,0,37.9,0,19.7,0,15.4,0,24.3,0
2003/5/2,23:00,10.2,0,83.2,0,24,0,37.9,0,19.7,0,15.6,0,24.2,0
2003/5/2,23:15,10,0,83.3,0,23.9,0,37.8,0,19.7,0,15.7,0,24.1,0
2003/5/2,23:30,10,0,82.4,0,23.7,0,37.7,0,19.7,0,15.8,0,24,0
2003/5/2,23:45,9.6,0,83.8,0,23.6,0,37.6,0,19.7,0,15.9,0,23.8,0
2003/5/3,0:00,9.6,0,84.1,0,23.5,0,37.6,0,19.6,0,16,0,23.7,0
2003/5/3,0:15,9.4,0,84.5,0,23.3,0,37.6,0,19.6,0,16.1,0,23.5,0
2003/5/3,0:30,9.2,0,85.1,0,23.2,0,37.5,0,19.6,0,16.2,0,23.4,0
2003/5/3,0:45,9,0,85.7,0,23,0,37.5,0,19.6,0,16.4,0,23.3,0
2003/5/3,1:00,8.3,0,87.5,0,22.9,0,37.4,0,19.6,0,16.5,0,23.1,0
2003/5/3,1:15,8.4,0,87.7,0,22.8,0,37.4,0,19.5,0,16.6,0,23,0
2003/5/3,1:30,8.4,0,88.1,0,22.6,0,37.4,0,19.5,0,16.7,0,22.8,0
2003/5/3,1:45,8.1,0,88,0,22.5,0,37.4,0,19.5,0,16.8,0,22.7,0
2003/5/3,2:00,7.9,0,88.6,0,22.4,0,37.4,0,19.5,0,16.8,0,22.6,0
2003/5/3,2:15,7.9,0,88.9,0,22.2,0,37.4,0,19.4,0,16.9,0,22.5,0
2003/5/3,2:30,8,0,88.4,0,22.1,0,37.5,0,19.4,0,17,0,22.4,0
2003/5/3,2:45,8,0,89.4,0,22,0,37.4,0,19.3,0,17.1,0,22.2,0
2003/5/3,3:00,8.1,0,88.9,0,21.9,0,37.3,0,19.3,0,17.2,0,22.1,0
2003/5/3,3:15,7.9,0,89.3,0,21.8,0,37.3,0,19.3,0,17.2,0,21.9,0
2003/5/3,3:30,7.8,0,88.8,0,21.6,0,37.3,0,19.2,0,17.3,0,21.8,0
2003/5/3,3:45,7.6,0,89.1,0,21.5,0,37.6,0,19.2,0,17.4,0,21.7,0
2003/5/3,4:00,7.1,0,89,0,21.3,0,37.6,0,19.2,0,17.5,0,21.6,0
2003/5/3,4:15,7.1,0,88.9,0,21.2,0,37.7,0,19.1,0,17.5,0,21.5,0
2003/5/3,4:30,6.9,0,90.4,0,21.1,0,37.7,0,19,0,17.6,0,21.4,0
2003/5/3,4:45,6.8,0,90.2,0,21,0,37.7,0,19,0,17.7,0,21.3,0
2003/5/3,5:00,6.6,0,90.4,0,20.9,0,37.7,0,18.9,0,17.7,0,21.2,0
2003/5/3,5:15,7,0,90.4,0,20.8,0,37.6,0,18.9,0,17.8,0,21.2,0
2003/5/3,5:30,7.5,0,89.7,0,20.8,0,37.5,0,18.8,0,17.9,0,21.2,0
2003/5/3,5:45,7.6,0,89,0,21,0,36.8,0,18.7,0,17.9,0,21.2,0
2003/5/3,6:00,8.4,0,86.4,0,24.5,0,30.3,0,18.7,0,18,0,22.2,0
2003/5/3,6:15,9.1,0,86.8,0,24.6,0,30.3,0,18.6,0,18,0,22.9,0
2003/5/3,6:30,9.6,0,85.5,0,25.4,0,29.4,0,18.6,0,18.1,0,23.5,0
2003/5/3,6:45,10.7,0,79.5,0,26.1,0,29.1,0,18.5,0,14.7,0,24,0
2003/5/3,7:00,11.9,0,76.1,0,26.5,0,29.5,0,18.4,0,13.7,0,24.5,0
2003/5/3,7:15,13,0,70.6,0,24.4,0,33.7,0,18.4,0,14.6,0,24.6,0
2003/5/3,7:30,13.8,0,68.6,0,24.1,0,35.1,0,18.3,0,14.7,0,24.5,0
2003/5/3,7:45,15.1,0,66.8,0,24.2,0,36.4,0,18.3,0,14.7,0,24.5,0
2003/5/3,8:00,16.2,0,63.6,0,24.5,0,37.1,0,18.2,0,14.8,0,24.7,0
2003/5/3,8:15,17.4,0,58.4,0,24.7,0,39.2,0,18.2,0,14.9,0,25,0
2003/5/3,8:30,18.5,0,55.8,0,24.8,0,41.8,0,18.2,0,14,0,25.3,0
2003/5/3,8:45,19.6,0,53.5,0,25,0,43.2,0,18.3,0,14.1,0,25.7,0
2003/5/3,9:00,20.6,0,50.3,0,25.3,0,44.6,0,18.3,0,14.2,0,26,0
2003/5/3,9:15,21.5,0,46.9,0,25.6,0,46.2,0,18.4,0,14.3,0,26.4,0
2003/5/3,9:30,22.2,0,43.4,0,25.9,0,47.1,0,18.5,0,14.4,0,26.7,0
2003/5/3,9:45,21.4,0,49.7,0,26,0,47.1,0,18.6,0,14.2,0,26.9,0
2003/5/3,10:00,21.6,0,46.9,0,26.1,0,44.6,0,18.7,0,14.6,0,27,0
2003/5/3,10:15,22.4,0,36.7,0,26.2,0,42.7,0,18.9,0,14.7,0,27.1,0
2003/5/3,10:30,22.5,0,36.1,0,26.2,0,41.1,0,19,0,14.8,0,27.1,0
2003/5/3,10:45,22.9,0,35,0,26.3,0,39.8,0,19.1,0,14.9,0,27.2,0
2003/5/3,11:00,22.7,0,32.9,0,26.3,0,39.2,0,19.3,0,15.1,0,27.3,0
2003/5/3,11:15,22.5,0,33.1,0,26.3,0,38.7,0,19.4,0,15.2,0,27.3,0
2003/5/3,11:30,22.5,0,33.8,0,26.4,0,37.9,0,19.6,0,15.4,0,27.4,0
2003/5/3,11:45,23.1,0,34.5,0,26.4,0,37.2,0,19.7,0,15.5,0,27.4,0
2003/5/3,12:00,23.2,0,33.3,0,26.5,0,37.4,0,19.8,0,15.7,0,27.5,0
2003/5/3,12:15,23.2,0,33.3,0,26.6,0,37.2,0,20,0,15.9,0,27.6,0
2003/5/3,12:30,23.3,0,34.4,0,26.7,0,37.8,0,20.1,0,16,0,27.7,0
2003/5/3,12:45,23.1,0,34.7,0,26.8,0,37.6,0,20.2,0,16.2,0,27.8,0
2003/5/3,13:00,23.1,0,35.5,0,26.9,0,37.4,0,20.4,0,15.1,0,27.9,0
2003/5/3,13:15,23.3,0,34.9,0,27.1,0,37.2,0,20.6,0,15.7,0,28,0
2003/5/3,13:30,23.1,0,36.3,0,27.2,0,37,0,20.8,0,15.9,0,28.1,0
2003/5/3,13:45,23,0,36.4,0,27.4,0,36.1,0,20.9,0,16,0,28.3,0
2003/5/3,14:00,22.7,0,37.6,0,27.5,0,36,0,21.1,0,16.2,0,28.4,0
2003/5/3,14:15,22.5,0,38.4,0,27.3,0,33.1,0,21.2,0,14.8,0,28.5,0
2003/5/3,14:30,22.7,0,42.1,0,27.4,0,33.9,0,21.4,0,15.1,0,28.5,0
2003/5/3,14:45,22.7,0,45,0,27.6,0,34.4,0,21.5,0,15.3,0,28.5,0
2003/5/3,15:00,22.3,0,49.1,0,27.9,0,34.9,0,21.6,0,15.4,0,28.6,0
2003/5/3,15:15,22.3,0,50,0,28.1,0,35.2,0,21.7,0,15.6,0,28.8,0
2003/5/3,15:30,22.3,0,51.2,0,28.3,0,35.4,0,21.8,0,15.8,0,28.9,0
2003/5/3,15:45,22.2,0,48.7,0,28.4,0,35.3,0,21.9,0,15.9,0,29,0
2003/5/3,16:00,21.9,0,48.3,0,28.4,0,34.9,0,21.9,0,16.1,0,29,0
2003/5/3,16:15,21.5,0,50.1,0,28.4,0,34.5,0,22,0,16.3,0,29.1,0
2003/5/3,16:30,21.1,0,51.6,0,28.3,0,34.4,0,22,0,16.4,0,29,0
2003/5/3,16:45,20.8,0,52.1,0,28.2,0,34.4,0,22,0,16.6,0,29,0
2003/5/3,17:00,20.7,0,52.1,0,28.1,0,34.4,0,22,0,16.8,0,28.9,0
2003/5/3,17:15,20.2,0,54.5,0,28,0,34.6,0,22,0,16.9,0,28.8,0
2003/5/3,17:30,19.7,0,54,0,27.8,0,34.7,0,22.1,0,17.1,0,28.7,0
2003/5/3,17:45,19.5,0,53.8,0,27.7,0,34.6,0,22.1,0,17.2,0,28.5,0
2003/5/3,18:00,18.9,0,56.9,0,27.5,0,34.8,0,22.1,0,17.4,0,28.4,0
2003/5/3,18:15,18.2,0,58.9,0,27.3,0,35.2,0,22,0,17.5,0,28.2,0
2003/5/3,18:30,18,0,58.5,0,27.1,0,35.4,0,22,0,17.6,0,28.1,0
2003/5/3,18:45,17.5,0,62,0,26.9,0,35.6,0,22,0,17.8,0,27.9,0
2003/5/3,19:00,16.3,0,68.5,0,26.8,0,36.3,0,22,0,17.9,0,27.7,0
2003/5/3,19:15,15.7,0,70.7,0,26.6,0,36.8,0,21.9,0,18,0,27.5,0
2003/5/3,19:30,15.6,0,71.2,0,26.4,0,37.2,0,21.9,0,18.1,0,27.4,0
2003/5/3,19:45,15.4,0,72.7,0,26.1,0,37.6,0,21.9,0,18.2,0,27.1,0
2003/5/3,20:00,15.1,0,74.2,0,26,0,37.5,0,21.8,0,18.3,0,27,0
2003/5/3,20:15,15.4,0,71.7,0,25.9,0,38.8,0,21.8,0,14.8,0,26.8,0
2003/5/3,20:30,15.1,0,72.6,0,26,0,39.6,0,21.7,0,15.9,0,26.7,0
2003/5/3,20:45,14.4,0,74.9,0,26.1,0,39.2,0,21.7,0,16.1,0,26.6,0
2003/5/3,21:00,14.2,0,75.1,0,26.1,0,38.9,0,21.7,0,16.2,0,26.6,0
2003/5/3,21:15,13.6,0,78.7,0,26,0,38.6,0,21.6,0,16.4,0,26.5,0
2003/5/3,21:30,12.7,0,81.4,0,26,0,39,0,21.5,0,14.4,0,26.4,0
2003/5/3,21:45,12.5,0,84.2,0,25.9,0,39.2,0,21.5,0,15.3,0,26.3,0
2003/5/3,22:00,12.7,0,83,0,25.8,0,39.5,0,21.5,0,15.4,0,26.2,0
2003/5/3,22:15,12.2,0,84,0,25.8,0,40.1,0,21.6,0,15.5,0,26,0
2003/5/3,22:30,12.4,0,84.6,0,25.7,0,39.2,0,21.6,0,15.7,0,25.8,0
2003/5/3,22:45,12.4,0,84,0,25.7,0,38.6,0,21.5,0,15.8,0,25.6,0
2003/5/3,23:00,11.6,0,85.3,0,25.7,0,38.1,0,21.5,0,14.4,0,25.5,0
2003/5/3,23:15,11.8,0,85.2,0,25.6,0,37.9,0,21.5,0,15.2,0,25.3,0
2003/5/3,23:30,11.5,0,85.7,0,25.5,0,37.8,0,21.4,0,15.4,0,25.1,0
2003/5/3,23:45,11.4,0,86.7,0,25.3,0,37.7,0,21.4,0,15.5,0,25.1,0
2003/5/4,0:00,11.4,0,86.3,0,25.1,0,37.7,0,21.4,0,15.6,0,25.1,0
2003/5/4,0:15,11.3,0,86.5,0,24.9,0,37.7,0,21.5,0,15.7,0,25,0
2003/5/4,0:30,11.2,0,86.5,0,24.8,0,37.7,0,21.5,0,15.9,0,24.8,0
2003/5/4,0:45,11.2,0,86.8,0,24.6,0,37.8,0,21.5,0,16,0,24.7,0
2003/5/4,1:00,11,0,86.4,0,24.4,0,37.8,0,21.4,0,16.1,0,24.5,0
2003/5/4,1:15,10.6,0,87.5,0,24.3,0,37.9,0,21.5,0,16.2,0,24.4,0
2003/5/4,1:30,10.6,0,88.6,0,24.1,0,38,0,21.5,0,16.4,0,24.2,0
2003/5/4,1:45,10.8,0,87.3,0,24,0,38.2,0,21.5,0,16.5,0,24.2,0
2003/5/4,2:00,10.9,0,87.2,0,23.9,0,38.3,0,21.5,0,16.6,0,24.1,0
2003/5/4,2:15,10.6,0,88,0,23.8,0,38.4,0,21.5,0,16.7,0,24,0
2003/5/4,2:30,10.3,0,89.5,0,23.7,0,38.4,0,21.5,0,16.8,0,23.9,0
2003/5/4,2:45,10.6,0,88.9,0,23.6,0,38.5,0,21.4,0,16.9,0,23.8,0
2003/5/4,3:00,10.4,0,88.4,0,23.4,0,38.5,0,21.4,0,17,0,23.7,0
2003/5/4,3:15,10.1,0,89.6,0,23.3,0,38.4,0,21.4,0,17.1,0,23.6,0
2003/5/4,3:30,9.7,0,89.1,0,23.2,0,38.4,0,21.3,0,17.2,0,23.5,0
2003/5/4,3:45,9.5,0,90.6,0,23.1,0,38.4,0,21.2,0,17.3,0,23.4,0
2003/5/4,4:00,9.6,0,90.8,0,23,0,38.4,0,21.2,0,17.4,0,23.3,0
2003/5/4,4:15,9.6,0,91.1,0,22.9,0,38.4,0,21.1,0,17.5,0,23.2,0
2003/5/4,4:30,9.2,0,90.7,0,22.8,0,38.5,0,21.1,0,17.6,0,23.1,0
2003/5/4,4:45,8.9,0,90.8,0,22.7,0,38.4,0,21,0,17.7,0,23,0
2003/5/4,5:00,8.6,0,91,0,22.5,0,38.3,0,21,0,17.7,0,22.9,0
2003/5/4,5:15,9,0,91.5,0,22.4,0,38.3,0,20.9,0,17.8,0,22.8,0
2003/5/4,5:30,9.2,0,90.9,0,22.4,0,38.2,0,20.8,0,17.9,0,22.8,0
2003/5/4,5:45,9.2,0,90.4,0,22.4,0,38.7,0,20.8,0,18,0,22.8,0
2003/5/4,6:00,9.8,0,89.4,0,24.2,0,34.7,0,20.6,0,15.3,0,22.9,0
2003/5/4,6:15,10.6,0,89.4,0,24.7,0,33.9,0,20.4,0,15.9,0,23.4,0
2003/5/4,6:30,12.2,0,88.7,0,25.2,0,33.5,0,20.2,0,16.1,0,23.8,0
2003/5/4,6:45,13.2,0,86.6,0,24.1,0,37,0,20,0,14.5,0,24,0
2003/5/4,7:00,13.8,0,85.4,0,23.7,0,37.9,0,19.9,0,14.4,0,23.8,0
2003/5/4,7:15,14.3,0,83.2,0,23.4,0,38.1,0,19.8,0,14.4,0,23.6,0
2003/5/4,7:30,14.5,0,81.9,0,23.3,0,38.3,0,19.7,0,14.5,0,23.4,0
2003/5/4,7:45,14.5,0,81.1,0,23.2,0,38.4,0,19.6,0,14.6,0,23.3,0
2003/5/4,8:00,15.1,0,76.5,0,23.3,0,38.4,0,19.6,0,14.7,0,23.5,0
2003/5/4,8:15,15.7,0,72.8,0,23.4,0,38.4,0,19.5,0,14.8,0,23.7,0
2003/5/4,8:30,15.6,0,72.7,0,23.3,0,38.8,0,19.5,0,14.9,0,23.8,0
2003/5/4,8:45,15.1,0,74.8,0,23.3,0,39.1,0,19.5,0,15,0,23.7,0
2003/5/4,9:00,14.6,0,76.2,0,23.2,0,39.3,0,19.4,0,15.1,0,23.6,0
2003/5/4,9:15,14.1,0,77.7,0,23.2,0,39.4,0,19.4,0,15.2,0,23.6,0
2003/5/4,9:30,14.1,0,76.5,0,23.2,0,39.4,0,19.4,0,15.4,0,23.6,0
2003/5/4,9:45,14.1,0,75.7,0,23.2,0,39.3,0,19.4,0,15.5,0,23.6,0
2003/5/4,10:00,14.4,0,74.9,0,23.2,0,39.4,0,19.3,0,15.6,0,23.6,0
2003/5/4,10:15,14.1,0,76.6,0,23.2,0,39.4,0,19.3,0,15.7,0,23.7,0
2003/5/4,10:30,13.8,0,76.8,0,23.2,0,39.6,0,19.3,0,15.8,0,23.7,0
2003/5/4,10:45,13.6,0,76.5,0,23.2,0,39.6,0,19.3,0,16,0,23.7,0
2003/5/4,11:00,13.6,0,76.8,0,23.2,0,39.6,0,19.3,0,16.1,0,23.7,0
2003/5/4,11:15,13.5,0,77.2,0,23.2,0,39.6,0,19.3,0,16.2,0,23.7,0
2003/5/4,11:30,13.6,0,76.5,0,23.2,0,39.6,0,19.3,0,16.3,0,23.7,0
2003/5/4,11:45,13.6,0,76.1,0,23.2,0,39.7,0,19.2,0,16.4,0,23.7,0
2003/5/4,12:00,13.5,0,77,0,23.2,0,39.7,0,19.2,0,16.5,0,23.7,0
2003/5/4,12:15,13.6,0,76.1,0,23.2,0,39.7,0,19.2,0,16.6,0,23.7,0
2003/5/4,12:30,14,0,74.4,0,23.3,0,39.7,0,19.2,0,16.8,0,23.8,0
2003/5/4,12:45,14,0,74,0,23.3,0,39.7,0,19.2,0,16.9,0,23.9,0
2003/5/4,13:00,14,0,73.9,0,23.3,0,39.8,0,19.2,0,17,0,23.9,0
2003/5/4,13:15,13.9,0,74.4,0,23.3,0,39.8,0,19.2,0,17.1,0,23.9,0
2003/5/4,13:30,13.8,0,75.2,0,23.3,0,39.8,0,19.2,0,17.2,0,23.9,0
2003/5/4,13:45,13.9,0,75.4,0,23.3,0,39.9,0,19.2,0,17.3,0,23.9,0
2003/5/4,14:00,14.1,0,72.8,0,23.4,0,39.9,0,19.2,0,17.4,0,23.9,0
2003/5/4,14:15,14.2,0,73.6,0,23.4,0,40,0,19.2,0,17.5,0,24,0
2003/5/4,14:30,13.8,0,75.4,0,23.4,0,40.1,0,19.2,0,17.6,0,24,0
2003/5/4,14:45,13.7,0,77.4,0,23.4,0,40,0,19.2,0,17.7,0,24,0
2003/5/4,15:00,13.6,0,78.4,0,23.4,0,40.1,0,19.2,0,17.8,0,23.9,0
2003/5/4,15:15,13.6,0,78.8,0,23.3,0,40.1,0,19.2,0,17.9,0,23.9,0
2003/5/4,15:30,13.5,0,79.6,0,23.3,0,40,0,19.2,0,18,0,23.9,0
2003/5/4,15:45,13.8,0,77.9,0,23.3,0,40,0,19.1,0,18,0,23.9,0
2003/5/4,16:00,14.1,0,74.9,0,23.4,0,40,0,19.1,0,18.1,0,23.9,0
2003/5/4,16:15,14.4,0,73.7,0,23.4,0,40,0,19.1,0,18.2,0,23.9,0
2003/5/4,16:30,14.1,0,73.4,0,23.4,0,40.2,0,19.1,0,18.3,0,23.9,0
2003/5/4,16:45,14.2,0,73.1,0,23.4,0,40.2,0,19.1,0,18.4,0,23.9,0
2003/5/4,17:00,13.8,0,74.1,0,23.4,0,40.3,0,19.1,0,18.5,0,23.9,0
2003/5/4,17:15,13.6,0,74.9,0,23.4,0,40.3,0,19.1,0,18.6,0,23.9,0
2003/5/4,17:30,13.4,0,75.9,0,23.3,0,40.1,0,19.1,0,18.6,0,23.8,0
2003/5/4,17:45,13.2,0,76.8,0,23.3,0,40.1,0,19.1,0,18.7,0,23.8,0
2003/5/4,18:00,13.1,0,77.7,0,23.2,0,40.2,0,19,0,18.8,0,23.7,0
2003/5/4,18:15,12.8,0,77.8,0,23.2,0,40.1,0,19,0,18.9,0,23.6,0
2003/5/4,18:30,12.6,0,77.1,0,23.1,0,40,0,19,0,18.9,0,23.6,0
2003/5/4,18:45,12.5,0,77.9,0,23,0,39.9,0,19,0,19,0,23.5,0
2003/5/4,19:00,12.4,0,77.5,0,22.9,0,39.9,0,18.9,0,19.1,0,23.4,0
2003/5/4,19:15,12.3,0,79.5,0,22.8,0,39.8,0,18.9,0,19.1,0,23.3,0
2003/5/4,19:30,11.9,0,82.6,0,22.8,0,39.7,0,18.9,0,19.2,0,23.2,0
2003/5/4,19:45,11.6,0,83.6,0,22.7,0,39.7,0,18.8,0,19.3,0,23.1,0
2003/5/4,20:00,11.3,0,84.2,0,22.6,0,39.5,0,18.8,0,19.3,0,23,0
2003/5/4,20:15,10.9,0,86,0,22.5,0,39.5,0,18.8,0,19.4,0,23,0
2003/5/4,20:30,10.6,0,87,0,22.4,0,39.4,0,18.7,0,19.4,0,22.9,0
2003/5/4,20:45,10.3,0,88,0,22.3,0,39.4,0,18.7,0,19.5,0,22.7,0
2003/5/4,21:00,10.1,0,89,0,22.2,0,39.3,0,18.6,0,19.5,0,22.6,0
2003/5/4,21:15,9.9,0,89.7,0,22.1,0,39.2,0,18.6,0,19.6,0,22.5,0
2003/5/4,21:30,9.7,0,90.3,0,22,0,39.2,0,18.5,0,19.6,0,22.4,0
2003/5/4,21:45,9.3,0,90.2,0,21.9,0,39.1,0,18.5,0,19.7,0,22.3,0
2003/5/4,22:00,9.4,0,91,0,21.8,0,39.1,0,18.4,0,19.7,0,22.2,0
2003/5/4,22:15,9.1,0,91.2,0,21.6,0,39.1,0,18.4,0,19.8,0,22.1,0
2003/5/4,22:30,9.4,0,91.9,0,21.5,0,39,0,18.3,0,19.8,0,21.9,0